Probability
0 0 0 0 0 0 0 0 0 0 0 0 0 0 0 0 0 0 1 1 1 1 0 0 0 0 0 1 2 3 2 1 0 0 0 0 0 0 0 0 0 0 0 0
0 0 0 0 0 0 0 0 0 0 0 0 0 0 0 0 0 1 2 2 2 2 1 0 1 1 0 1 3 3 2 1 0 0 0 0 0 0 0 0 0 0 0 0
0 0 0 0 0 0 0 0 0 0 0 0 0 0 0 0 0 1 2 3 3 3 2 1 1 2 1 2 3 3 1 0 0 0 0 0 0 0 0 0 0 0 0 0
0 0 0 0 0 0 0 0 0 0 0 0 0 0 0 0 0 0 1 1 2 3 2 1 1 2 2 1 2 2 1 0 0 0 0 0 0 0 0 0 0 0 0 0
0 0 0 0 0 0 0 0 0 0 0 0 0 0 0 0 0 0 0 0 1 2 2 1 0 1 1 0 1 1 0 0 0 0 0 0 0 0 0 0 0 0 0 0
0 0 0 0 0 0 0 0 0 0 0 0 0 0 0 0 0 0 0 0 0 1 1 0 0 0 0 0 0 0 0 0 0 0 0 0 0 0 0 0 0 0 0 0
0 0 0 0 0 0 0 0 0 0 0 0 0 0 0 0 0 0 0 0 0 0 0 0 0 0 0 0 0 0 0 0 0 0 0 0 0 0 0 0 0 0 0 0
0 0 0 0 0 0 0 0 0 0 0 0 0 0 0 0 0 0 0 0 0 0 0 0 0 0 0 0 0 0 0 0 0 0 0 0 0 0 0 0 0 0 0 0
0 0 0 0 0 0 0 0 0 0 0 0 0 0 0 0 0 0 0 0 0 0 0 0 0 0 0 0 0 0 0 0 0 0 0 0 0 0 0 0 0 0 0 0
0 0 0 0 0 0 0 0 0 0 0 0 0 0 0 0 0 0 0 0 0 0 0 0 0 0 0 0 0 0 0 0 0 0 0 0 0 0 0 0 0 0 0 0
0 0 0 0 0 0 0 0 0 0 0 0 0 0 0 0 0 0 0 0 0 0 0 0 0 0 0 0 0 0 0 0 0 0 0 0 0 0 0 0 0 0 0 0
0 0 0 0 0 0 0 0 0 0 0 0 0 0 0 0 0 0 0 0 0 0 0 0 0 0 0 0 0 0 0 0 0 0 0 0 0 0 0 0 0 0 0 0
0 0 0 0 0 0 0 0 0 0 0 0 0 0 0 0 0 0 0 0 0 0 0 0 0 0 0 0 0 0 0 0 0 0 0 0 0 0 0 0 0 0 0 0
0 0 0 0 0 0 0 0 0 0 0 0 0 0 0 0 0 0 0 0 0 0 0 0 0 0 0 0 0 0 0 0 0 0 0 0 0 0 0 0 0 0 0 0
0 0 0 0 0 0 0 0 0 0 0 0 0 0 0 0 0 0 0 0 0 0 0 0 0 0 0 0 0 0 0 0 0 0 0 0 0 0 0 0 0 0 0 0
0 0 0 0 0 0 0 0 0 0 0 0 0 0 0 0 0 0 0 0 0 0 0 0 0 0 0 0 0 0 0 0 0 0 0 0 0 0 0 0 0 0 0 0
0 0 0 0 0 0 0 0 0 0 0 0 0 0 0 0 0 0 0 0 0 0 0 0 0 0 0 0 0 0 0 0 0 0 0 0 0 0 0 0 0 0 0 0
0 0 0 0 0 0 0 0 0 0 0 0 0 0 0 0 0 0 0 0 0 0 0 0 0 0 0 0 0 0 0 0 0 0 0 0 0 0 0 0 0 0 0 0
0 0 0 0 0 0 0 0 0 0 0 0 0 0 0 0 0 0 0 0 0 0 0 0 0 0 0 0 0 0 0 0 0 0 0 0 0 0 0 0 0 0 0 0
0 0 0 0 0 0 0 0 0 0 0 0 0 0 0 0 0 0 0 0 0 0 0 0 0 0 0 0 0 0 0 0 0 0 0 0 0 0 0 0 0 0 0 0
0 0 0 0 0 0 0 0 0 0 0 0 0 0 0 0 0 0 0 0 0 0 0 0 0 0 0 0 0 0 0 0 0 0 0 0 0 0 0 0 0 0 0 0
0 0 0 0 0 0 0 0 0 0 0 0 0 0 0 0 0 0 0 0 0 0 0 0 0 0 0 0 0 0 0 0 0 0 0 0 0 0 0 0 0 0 0 0
0 0 0 0 0 0 0 0 0 0 0 0 0 0 0 0 0 0 0 0 0 0 0 0 0 0 0 0 0 0 0 0 0 0 0 0 0 0 0 0 0 0 0 0
0 0 0 0 0 0 0 0 0 0 0 0 0 0 0 0 0 0 0 0 0 0 0 0 0 0 0 0 0 0 0 0 0 0 0 0 0 0 0 0 0 0 0 0
0 0 0 0 0 0 0 0 0 0 0 0 0 0 0 0 0 0 0 0 0 0 0 0 0 0 0 0 0 0 0 0 0 0 0 0 0 0 0 0 0 0 0 0
0 0 0 0 0 0 0 0 0 0 0 0 0 0 0 0 0 0 0 0 0 0 0 0 0 0 0 0 0 0 0 0 0 0 0 0 0 0 0 0 0 0 0 0
0 0 0 0 0 0 0 0 0 0 0 0 0 0 0 0 0 0 0 0 0 0 0 0 0 0 0 0 0 0 0 0 0 0 0 0 0 0 0 0 0 0 0 0
Wind_Speed
5 4 3 4 5 8 7 8 8 8 8 10 7 7 7 6 6 7 8 9 10 11 10 9 8 8 8 8 7 8 7 8 9 8 6 6 6 6 5 6 6 6 5 6
1 1 3 3 5 6 6 5 6 5 8 7 4 2 2 3 6 8 9 9 9 9 9 10 10 10 9 8 8 8 8 8 7 6 6 6 6 6 6 6 5 5 6 6
2 1 1 4 6 6 5 5 6 8 8 2 1 2 4 4 6 7 8 8 8 9 10 11 11 11 11 10 8 9 9 8 7 7 7 7 6 5 6 6 5 6 6 6
1 1 4 7 1 3 4 3 3 4 4 4 4 3 1 1 4 5 5 6 7 7 8 8 8 8 8 8 9 9 9 8 7 7 7 6 6 6 6 5 5 6 7 7
3 2 5 4 1 3 3 3 3 4 4 3 2 2 3 3 1 3 4 5 5 6 5 5 6 6 7 7 7 8 8 8 7 8 7 6 7 7 6 4 5 6 5 7
3 3 6 6 2 2 3 3 2 3 3 2 1 1 2 4 3 2 1 1 2 3 4 4 4 6 7 6 6 8 8 7 6 7 7 7 7 6 5 5 6 6 7 7
3 4 7 4 1 2 3 5 1 1 1 0 1 2 2 3 3 2 3 4 3 4 4 3 5 6 6 6 7 7 5 5 5 6 6 6 5 4 4 5 5 6 7 7
4 3 7 2 1 4 5 1 1 1 1 2 2 2 2 3 3 5 6 6 5 4 4 3 4 6 5 4 5 3 4 4 4 4 4 4 4 4 4 4 5 6 6 7
7 7 4 2 2 1 1 1 1 1 2 3 3 3 3 4 5 6 6 5 4 5 6 5 4 5 3 1 1 3 3 2 2 2 3 3 4 4 3 4 4 5 5 6
3 5 3 2 1 1 1 1 1 2 3 4 5 5 6 6 5 6 5 5 5 7 7 5 4 4 3 2 3 4 2 1 1 1 1 2 2 3 3 4 5 5 6 7
3 4 2 2 0 2 3 4 6 6 6 6 8 7 7 6 5 5 5 5 5 5 5 4 4 4 3 2 3 3 2 1 1 0 1 2 3 3 5 6 6 7 6 7
5 5 3 1 2 4 6 6 7 8 8 7 8 7 7 6 4 5 5 5 6 5 5 4 4 4 3 2 3 4 2 1 0 1 1 2 3 4 6 9 11 12 13 12
3 1 3 3 4 5 7 7 7 8 8 8 6 6 7 5 4 5 5 6 5 4 3 3 3 3 2 1 2 3 2 0 0 1 1 2 3 4 6 7 8 11 13 13
2 4 4 3 4 6 9 9 9 8 7 7 5 5 6 5 5 6 5 3 3 3 3 2 3 2 2 1 2 2 1 1 1 1 2 3 3 4 4 6 7 7 8 11
5 5 6 6 8 8 8 9 10 8 6 6 5 5 5 5 4 3 2 2 3 3 2 2 2 2 2 1 1 1 1 1 1 2 3 3 4 4 5 6 7 7 8 9
7 10 10 11 10 8 8 8 8 5 4 4 4 3 3 3 2 2 2 1 2 1 1 1 1 2 1 0 0 1 1 4 3 3 3 4 4 4 5 6 7 7 8 8
8 7 7 8 8 6 5 5 4 4 3 2 1 1 2 2 2 2 2 2 1 2 2 2 3 3 2 1 1 1 2 3 6 4 3 4 4 5 6 6 7 8 8 9
8 7 7 7 7 7 5 4 4 3 1 0 0 1 1 1 1 3 3 3 2 3 4 4 4 3 3 3 2 2 3 3 4 4 4 4 5 5 6 7 8 10 9 9
10 9 8 6 5 5 3 2 1 0 1 1 1 1 2 3 3 4 3 2 3 4 6 5 5 4 4 5 4 2 3 4 4 5 5 6 6 6 6 7 8 9 9 9
9 8 7 5 4 3 1 0 1 1 2 2 1 2 3 4 4 4 3 4 5 6 5 5 4 4 5 5 5 3 4 4 5 5 5 5 6 7 7 8 9 9 9 9
6 5 4 4 3 2 2 2 2 3 3 3 3 4 5 5 4 3 2 5 6 5 5 6 4 4 4 4 4 3 4 4 5 5 6 6 6 7 8 9 9 9 9 9
3 3 3 3 3 3 4 3 3 3 4 4 4 4 4 5 5 4 4 5 6 6 4 3 3 5 5 4 3 3 4 5 5 5 5 6 6 7 8 9 9 9 9 8
2 2 3 3 3 3 4 4 4 3 4 4 4 4 4 4 3 3 4 4 4 6 4 3 4 6 6 3 3 3 4 5 5 5 6 6 7 7 8 9 9 9 8 8
2 2 3 3 2 2 4 5 4 3 4 4 4 4 3 3 3 3 4 6 6 6 3 4 6 6 5 2 3 3 4 5 5 6 6 7 7 7 7 8 8 8 8 9
2 2 3 3 3 2 3 4 4 4 4 4 5 4 3 2 3 4 4 4 5 5 3 4 4 5 3 2 3 4 4 5 5 6 6 7 7 7 7 7 8 8 7 7
3 2 2 2 2 3 3 3 3 3 3 4 5 4 4 3 4 3 3 3 4 4 3 3 3 3 3 3 4 4 5 5 6 6 6 7 7 8 7 7 10 8 7 7
3 3 3 3 3 3 3 3 3 4 4 4 5 5 5 4 4 3 3 3 3 3 3 3 3 3 3 4 4 5 5 5 5 6 6 6 6 7 7 9 7 7 7 7
Wind_Direction
227 222 179 205 199 177 186 191 194 228 229 254 255 237 229 214 198 189 194 196 194 194 192 189 188 188 188 188 180 174 177 191 204 204 200 200 206 212 215 217 223 226 234 241
270 222 191 236 240 205 207 205 219 243 259 254 258 232 216 197 184 190 199 202 200 195 188 188 190 188 185 185 179 169 180 202 205 197 197 204 210 212 216 222 226 226 233 239
251 305 68 259 233 204 202 204 193 219 240 272 271 212 205 194 187 196 201 197 193 195 196 195 193 187 187 187 172 172 189 199 195 193 200 208 208 208 219 224 223 230 237 239
155 93 230 247 277 173 178 223 224 237 253 243 229 231 223 173 186 203 202 194 200 199 197 196 189 185 180 167 171 182 192 200 196 194 205 206 200 213 221 219 223 234 241 241
129 200 271 292 228 160 168 249 221 233 264 263 225 87 20 356 273 211 208 200 200 198 193 179 175 171 159 166 174 184 197 202 200 197 203 202 208 220 219 215 229 234 240 240
134 175 237 247 228 171 125 272 233 215 256 282 50 94 294 337 342 360 55 111 143 142 127 143 156 145 152 170 178 197 204 203 195 194 200 208 215 218 213 214 232 239 246 245
164 216 259 261 271 120 169 244 242 193 230 61 110 187 260 339 9 35 65 74 89 109 124 154 149 149 161 171 196 203 189 182 185 194 204 211 213 214 215 222 236 244 251 256
157 199 254 288 118 180 214 231 129 140 128 101 101 78 36 25 35 52 57 65 82 96 88 85 126 140 152 187 203 167 157 170 187 197 210 212 210 220 218 221 239 253 258 267
187 212 242 265 232 260 174 160 167 133 126 117 102 83 61 42 38 48 55 60 66 83 76 64 81 112 139 213 119 120 137 172 189 194 209 207 207 222 225 221 235 253 256 264
255 268 260 262 253 279 167 151 114 114 112 107 101 86 71 57 44 45 44 53 64 76 75 64 64 79 94 90 115 124 135 151 159 186 225 233 228 227 231 237 243 252 256 262
260 277 308 323 154 119 96 92 88 83 88 104 103 86 76 64 48 48 52 53 68 82 88 77 67 56 46 76 111 110 105 95 81 211 248 259 256 245 244 244 239 244 255 256
228 233 183 209 93 108 101 95 100 95 79 73 86 88 80 69 52 53 56 61 67 67 71 65 68 62 41 49 101 109 93 70 35 315 287 278 284 292 263 256 265 258 253 253
229 143 124 104 87 91 98 96 94 93 96 88 76 83 84 76 59 58 60 61 68 73 77 75 69 52 26 47 88 99 107 105 301 296 287 286 286 289 297 297 283 276 270 266
132 112 91 79 90 91 97 95 88 79 76 82 84 82 83 77 66 62 55 52 66 71 63 60 59 23 351 49 77 79 68 19 337 293 289 289 287 285 283 290 301 300 291 283
55 84 104 96 87 85 88 92 88 78 71 64 66 76 83 84 78 62 43 51 62 60 47 48 47 334 324 75 97 76 10 308 294 288 286 284 286 289 288 287 286 289 296 297
80 82 88 87 83 81 82 88 92 85 78 73 68 68 81 91 84 54 21 42 73 51 306 311 290 283 301 47 89 330 310 307 304 286 287 290 291 292 293 294 293 292 291 292
92 90 95 97 92 87 82 85 97 98 89 89 97 100 87 75 50 1 323 317 288 269 266 251 257 275 284 261 248 269 286 298 304 298 285 283 286 289 291 292 293 293 289 287
80 85 90 100 103 95 84 82 89 91 95 223 114 89 114 167 235 261 276 301 320 308 282 259 256 270 276 269 252 255 268 275 281 282 283 284 288 288 290 291 293 294 295 296
72 77 77 77 88 100 103 99 88 58 303 278 237 247 254 254 252 259 269 284 283 281 276 270 267 263 268 272 269 254 265 277 285 286 286 289 293 293 294 296 296 296 297 298
67 71 73 67 66 81 86 19 284 288 284 281 273 277 278 274 270 268 266 261 251 247 260 275 276 267 268 276 281 262 269 278 286 291 292 293 296 298 299 299 299 299 299 298
65 65 65 56 37 20 354 328 316 302 301 295 268 264 268 275 277 266 257 275 277 271 270 273 267 265 270 277 285 274 277 283 287 291 294 296 298 299 299 300 300 299 298 298
43 33 17 5 353 335 328 328 319 309 308 304 292 284 283 286 290 280 252 247 268 289 290 277 274 276 285 289 283 283 287 289 290 291 291 292 294 296 297 299 300 300 299 299
357 345 334 326 320 310 319 327 326 317 309 303 296 291 282 276 270 262 283 279 280 291 289 277 284 295 304 304 292 289 292 292 291 291 290 290 292 293 294 297 298 300 301 302
334 321 311 312 334 353 339 327 328 320 310 304 296 288 279 287 291 262 258 288 303 304 295 291 300 309 315 304 295 293 292 292 293 294 294 294 295 296 296 297 299 300 301 303
359 354 359 6 6 335 308 311 323 326 327 319 315 311 297 260 262 285 297 300 307 312 309 311 320 326 325 310 303 301 299 300 304 303 300 301 302 302 301 302 303 306 308 308
351 339 328 312 291 287 296 304 303 303 311 312 311 309 312 308 299 300 309 317 323 322 321 323 332 337 333 326 321 319 315 313 312 310 309 309 308 306 304 306 308 309 310 311
345 338 331 328 320 309 302 294 290 294 294 292 296 304 313 319 324 331 335 332 332 332 334 337 342 341 338 336 334 331 326 321 319 318 319 318 314 311 312 313 313 311 311 314